Regional Weather Roundup
Issued by NWS

Home | Current Version | Previous Version | Graphics & Text | Print | Product List | Glossary On
Versions: 1 2 3 4 5 6 7 8 9 10 11 12 13 14 15 16 17 18 19 20 21 22 23 24 25 26 27 28 29 30 31 32 33 34 35 36 37 38 39 40 41 42 43 44 45 46 47 48 49 50
000
ASUS43 KOAX 282202
RWRNE

WEATHER ROUNDUP FOR NEBRASKA
NATIONAL WEATHER SERVICE OMAHA NE
500 PM CDT SUN MAY 28 2017

NOTES: SATELLITE DATA IS BEING USED TO AUGMENT CLOUD COVER ABOVE
       12000 FEET.
       "FAIR" INDICATES FEW OR NO CLOUDS BELOW 12,000 FEET WITH NO
       SIGNIFICANT WEATHER AND/OR OBSTRUCTIONS TO VISIBILITY.

  * THESE STATIONS DO NOT REPORT WEATHER SUCH AS RAIN...SNOW OR FOG.

NEZ001>004-019>022-054>056-282300-
NEBRASKA PANHANDLE

CITY           SKY/WX    TMP DP  RH WIND       PRES   REMARKS
SCOTTSBLUFF    PTSUNNY   71  39  31 MISG      30.12S
ALLIANCE       PTSUNNY   72  40  31 NW20G25   30.08F
CHADRON        CLOUDY    62  47  57 E7        30.09F
GORDON         MOCLDY    62  42  48 W14G20    30.08F
KIMBALL        MOSUNNY   70  37  30 NW7       30.18F
SIDNEY         MOSUNNY   70  42  36 N16       30.15F
$$

NEZ057>060-069>072-079>082-282300-
SOUTHWEST NEBRASKA

CITY           SKY/WX    TMP DP  RH WIND       PRES   REMARKS
NORTH PLATTE   MOSUNNY   75  45  34 N9G23     30.04F
IMPERIAL       PTSUNNY   73  37  27 N17G24    30.08F
LEXINGTON      SUNNY     75  41  28 NW14G25   30.03F
MCCOOK         SUNNY     78  44  29 N18       30.04F
OGALLALA       SUNNY     77  41  27 NW14G23   30.08F
$$

NEZ005>010-023>029-035>040-094-282300-
NORTH CENTRAL NEBRASKA

CITY           SKY/WX    TMP DP  RH WIND       PRES   REMARKS
VALENTINE      SUNNY     76  32  20 W13       30.00F
AINSWORTH      SUNNY     73  39  29 W12       30.01F
BROKEN BOW     SUNNY     79  38  22 NW21G26   30.01F
O`NEILL        PTSUNNY   74  34  22 N13G20    29.97F
ORD            SUNNY     76  36  23 NW16G23   29.98F
THEDFORD       SUNNY     74  39  28 NW7       30.04F
$$

NEZ041-046>049-061>064-073>077-083>087-282300-
SOUTH CENTRAL NEBRASKA

CITY           SKY/WX    TMP DP  RH WIND       PRES   REMARKS
GRAND ISLAND   SUNNY     79  39  23 N20G31    29.98S
AURORA         SUNNY     80  34  19 N25       29.98R
HASTINGS       PTSUNNY   76  41  28 NW13G22   30.01R
HEBRON         MOSUNNY   83  40  21 N10G16    29.95F
HOLDREGE       PTSUNNY   70  45  40 NE14      30.04S
KEARNEY *      CLOUDY    73  45  35 W6        30.03R
$$

NEZ011>018-030>034-042>045-282300-
NORTHEAST NEBRASKA

CITY           SKY/WX    TMP DP  RH WIND       PRES   REMARKS
NORFOLK        MOSUNNY   75  38  26 NW16G26   29.93F
ALBION         SUNNY     76  39  26 NW16G23   29.97F
BLAIR          SUNNY     78  39  24 NW23      29.90S
FREMONT        SUNNY     79  38  23 W18G26    29.92S
TEKAMAH        SUNNY     80  37  21 NW22G35   29.90R
WAYNE          SUNNY     76  38  25 NW22G33   29.91F
$$

NEZ050>053-065>068-078-088>093-282300-
SOUTHEAST NEBRASKA

CITY           SKY/WX    TMP DP  RH WIND       PRES   REMARKS
LINCOLN        SUNNY     82  37  20 NW22G31   29.93R
OMAHA EPPLEY   MOSUNNY   80  39  23 NW24G32   29.88R
BEATRICE       CLOUDY    82  44  26 NW22G32   29.92F
FALLS CITY     MOSUNNY   79  48  33 W16G23    29.89F
NEBRASKA CITY  PTSUNNY   80  34  18 NW10      29.89S
PLATTSMOUTH    MOSUNNY   82  38  21 NW24G30   29.89S
$$

NEZ044-045-051>053-067-282300-
OMAHA AREA

CITY           SKY/WX    TMP DP  RH WIND       PRES   REMARKS
OMAHA EPPLEY   MOSUNNY   80  39  23 NW24G32   29.88R
BLAIR          SUNNY     78  39  24 NW23      29.90S
FREMONT        SUNNY     79  38  23 W18G26    29.92S
MILLARD        SUNNY     80  42  25 NW20G26   29.90R
OFFUTT AFB     SUNNY     80  43  26 NW18G28   29.88R
PLATTSMOUTH    MOSUNNY   82  38  21 NW24G30   29.89S
WAHOO          FAIR      80  36  20 W20G25    29.92R
$$




USA.gov is the U.S. government's official web portal to all federal, state and local government web resources and services.